Content
SEND FEEDBACK

Daily
Averages
Monthly
Summary
United States of America

PUT IN BAY, OHIO


Home > North America > United States > Ohio
Elevation: 561 feet     Latitude: 41 39N     Longitude: 082 48W

WEATHER
 
SELECT A DAY
Number of Records: 122,505;   Date Range: 12/10/00 - 7/28/14
 
SHARE

PRINT THIS DATA

[ ← Previous Day ]
WEATHER ALMANAC - JUNE 21, 2013
[ Next Day → ]
[ °C ]   °F
Weather ElementAverageHighLow
Temperature73.4 °F81.9 °F (4:00 pm)64.8 °F (5:00 am)
Dewpoint60.2 °F63.7 °F (9:00 pm)54.7 °F (3:00 am)
Humidity62.7 %80 % (7:00 am)44 % (2:00 pm)
Barometer30.14 in30.19 in (1:00 am)30.05 in (9:00 pm)
Wind Speed6.6 mph10.4 mph (9:00 pm)
Weather ElementAverage
Wind DirectionSSE (158.1 °)

Weather ElementTotal
Precipitation---
Cooling Degree Days8.3 (Base 65)
Growing Degree Days23.4 (Base 50)
Averaged from 27 records on June 21, 2013
WEATHER CONDITIONS BREAKOUT
WIND DIRECTION BREAKOUT
WEATHER BY HOUR - JUNE 21, 2013
[ °C ]   °F
Local TimeTemperatureDewpointHumidityBarometerVisibilityWind DirectionWind SpeedGust SpeedPrecipitationEventsConditions
1:00 AM66.9 °F56.3 °F69 %30.19 inSE (140°)3.5 mph
2:00 AM66.0 °F55.0 °F59 %30.18 inSSE (150°)3.5 mph
2:00 AM66.4 °F54.9 °F66 %30.18 inSSE (150°)3.5 mph
3:00 AM66.7 °F54.7 °F65 %30.17 inSE (140°)4.6 mph
4:00 AM65.8 °F56.8 °F73 %30.16 inSSE (150°)4.6 mph
5:00 AM64.8 °F56.5 °F74 %30.16 inSSE (150°)3.5 mph
6:00 AM65.5 °F58.1 °F77 %30.17 inSSE (160°)4.6 mph
7:00 AM67.6 °F61.2 °F80 %30.17 inSSE (160°)5.8 mph
8:00 AM70.0 °F61.0 °F65 %30.17 inSSE (160°)6.9 mph
8:00 AM70.2 °F61.0 °F73 %30.16 inSSE (160°)6.9 mph
9:00 AM71.6 °F61.0 °F69 %30.19 inSouth (180°)8.1 mph
10:00 AM73.8 °F60.6 °F63 %30.18 inSouth (180°)8.1 mph
11:00 AM74.3 °F60.3 °F61 %30.17 inSouth (180°)9.2 mph
12:00 PM76.3 °F60.8 °F59 %30.19 inSouth (180°)6.9 mph
1:00 PM77.7 °F61.2 °F57 %30.18 inSouth (170°)6.9 mph
2:00 PM80.0 °F62.0 °F44 %30.16 inSSE (160°)6.9 mph
2:00 PM80.2 °F61.7 °F53 %30.16 inSSE (160°)6.9 mph
3:00 PM80.2 °F60.8 °F51 %30.15 inSE (140°)5.8 mph
4:00 PM81.9 °F61.9 °F51 %30.13 inSSE (150°)6.9 mph
5:00 PM81.7 °F61.7 °F51 %30.12 inSE (140°)6.9 mph
6:00 PM79.5 °F62.4 °F56 %30.09 inSSE (150°)6.9 mph
7:00 PM77.4 °F62.4 °F60 %30.07 inSSE (150°)6.9 mph
8:00 PM76.0 °F62.0 °F53 %30.07 inSSE (150°)8.1 mph
8:00 PM76.1 °F62.2 °F62 %30.07 inSSE (150°)8.1 mph
9:00 PM75.4 °F63.7 °F67 %30.05 inSSE (160°)10.4 mph
10:00 PM75.0 °F63.5 °F67 %30.06 inSouth (170°)8.1 mph
11:00 PM74.3 °F62.6 °F67 %30.07 inSouth (180°)9.2 mph
Hourly data recorded from CXHA, located miles away from Put In Bay, Ohio







STORIES FROM OUR PARTNERS